Temp
64 63 62 62 61 62 61 61 61 61 60 60 59 58 58 59 58 58 59 59 58 57 58 58 57 59 60 59 58 60 58 56 56 56 56 55 54 54 56 55 54 53
63 63 63 62 61 61 61 62 62 62 61 60 60 59 60 60 58 59 59 58 58 57 57 58 58 57 58 59 58 58 57 57 57 60 56 55 55 54 54 54 54 53
62 63 63 62 62 61 62 61 62 62 62 61 61 61 61 60 59 59 59 58 57 57 57 57 58 57 57 57 57 57 57 55 55 56 55 55 54 53 54 53 53 54
62 62 63 63 62 62 61 62 61 62 62 61 61 62 63 62 60 59 60 61 57 57 56 57 57 57 57 57 57 56 56 56 56 55 55 55 55 54 54 54 53 54
63 62 62 62 63 64 62 62 62 61 62 62 62 62 62 61 59 60 60 58 58 57 57 57 57 57 57 56 56 56 55 56 56 55 55 54 55 55 56 55 54 54
64 64 63 64 62 64 62 62 63 61 62 62 62 62 62 61 60 60 59 58 58 58 57 56 57 57 56 56 55 56 55 57 56 55 55 54 56 56 59 55 54 55
60 60 62 62 62 64 62 61 63 62 62 63 62 61 62 62 61 61 60 60 58 59 59 56 56 56 56 56 55 56 55 55 56 55 55 54 55 55 57 55 55 55
60 59 60 60 60 61 62 60 61 60 61 62 62 62 63 63 62 61 61 61 59 59 58 58 57 56 55 56 55 55 55 57 57 55 54 55 54 54 56 57 54 54
60 58 59 59 60 60 60 61 60 60 60 60 59 60 61 63 62 61 61 61 60 59 59 58 58 57 56 56 55 54 56 54 56 55 53 53 54 54 55 55 55 55
58 58 58 58 57 58 61 60 61 60 59 59 58 58 60 59 60 61 61 61 61 59 59 59 59 59 58 58 58 56 56 55 55 54 53 53 55 54 55 54 54 53
58 58 58 58 59 58 59 60 60 60 59 59 57 57 58 58 59 60 60 60 60 60 60 60 60 60 59 59 58 57 57 56 56 55 54 54 55 55 56 56 54 54
57 58 58 59 59 59 60 60 60 60 59 58 59 58 56 57 58 60 61 59 58 57 59 60 61 61 61 60 60 59 58 57 57 56 56 55 55 55 54 55 53 53
55 57 58 59 59 60 59 58 58 57 58 58 58 59 57 57 58 58 57 58 58 58 59 60 61 61 61 61 61 60 59 58 58 57 56 56 56 55 54 54 53 52
57 58 59 59 58 58 58 58 57 58 58 58 57 57 57 58 57 58 56 58 59 59 60 59 58 58 59 60 62 62 60 58 58 58 57 56 55 54 54 53 53 52
57 57 57 57 58 58 58 57 57 56 56 57 56 57 57 57 57 57 57 57 58 58 58 58 57 58 59 59 60 61 60 59 58 58 57 56 54 54 53 53 52 52
57 55 56 56 56 56 57 57 57 56 56 56 56 57 56 55 55 55 55 55 56 57 57 57 57 58 57 54 55 60 59 61 58 58 57 55 55 53 52 53 53 51
56 56 56 55 56 57 57 58 58 58 57 57 57 57 57 56 56 56 55 56 56 56 56 57 58 58 51 48 48 50 58 59 58 57 57 56 55 54 53 53 51 51
56 57 55 56 55 56 56 56 56 57 57 58 58 57 57 57 56 57 57 55 56 55 56 57 57 54 48 47 48 47 50 58 58 58 57 56 55 55 53 53 53 52
56 57 55 54 56 57 56 55 55 57 57 55 56 57 57 57 57 56 56 56 55 55 56 56 55 51 46 47 46 46 46 54 57 58 57 55 55 54 54 54 53 53
58 54 54 53 55 56 56 55 55 57 58 57 57 56 54 55 56 56 57 56 57 57 56 54 53 50 45 45 45 45 44 51 56 56 55 54 56 56 56 54 52 52
55 53 53 53 52 51 51 52 53 51 53 52 56 57 56 54 53 53 55 55 55 55 54 52 55 49 43 44 43 44 45 49 55 55 55 53 52 53 52 52 52 52
53 51 52 52 52 52 53 53 51 51 53 52 52 52 53 55 53 52 52 52 53 54 51 50 49 42 42 42 43 44 47 53 55 54 53 52 52 51 51 50 51 52
52 52 52 53 53 53 54 53 53 53 51 50 51 49 51 50 53 52 51 53 51 51 51 50 45 41 41 43 44 45 47 52 52 51 50 50 50 51 51 52 54 53
52 53 52 53 52 53 52 51 52 52 52 51 54 51 50 50 50 51 51 51 51 51 51 50 43 41 42 42 43 45 47 50 50 50 49 48 50 50 50 52 53 53
55 53 51 51 52 52 52 52 51 51 50 51 50 50 49 49 50 53 50 45 47 51 51 47 42 42 41 42 43 44 46 48 48 48 47 48 50 51 52 50 43 43
54 55 53 53 53 50 49 50 49 52 52 51 49 49 49 49 48 46 44 45 44 46 47 45 43 41 42 42 43 43 44 47 48 46 46 46 47 48 49 47 44 42
MSLP
1015.37 1015.37 1015.49 1015.65 1015.85 1016.01 1016.17 1016.33 1016.49 1016.73 1017.05 1017.29 1017.53 1017.85 1018.01 1018.17 1018.21 1018.37 1018.53 1018.69 1018.85 1018.97 1019.05 1019.13 1019.17 1019.33 1019.45 1019.53 1019.65 1019.73 1019.89 1019.97 1020.01 1020.05 1020.09 1020.13 1020.17 1020.17 1020.17 1020.17 1020.17 1020.25
1015.37 1015.33 1015.49 1015.65 1015.89 1016.09 1016.17 1016.21 1016.29 1016.49 1016.85 1017.09 1017.33 1017.65 1017.85 1018.01 1018.21 1018.37 1018.57 1018.73 1018.85 1019.01 1019.09 1019.21 1019.29 1019.41 1019.57 1019.69 1019.81 1019.93 1020.05 1020.09 1020.17 1020.17 1020.25 1020.29 1020.33 1020.33 1020.37 1020.33 1020.37 1020.45
1015.41 1015.33 1015.41 1015.61 1015.89 1016.09 1016.21 1016.33 1016.33 1016.41 1016.69 1016.93 1017.21 1017.45 1017.73 1017.85 1018.13 1018.29 1018.45 1018.69 1018.93 1019.05 1019.17 1019.25 1019.33 1019.49 1019.65 1019.81 1019.97 1020.09 1020.17 1020.25 1020.37 1020.41 1020.45 1020.49 1020.53 1020.53 1020.57 1020.53 1020.53 1020.57
1015.49 1015.41 1015.37 1015.53 1015.77 1016.05 1016.21 1016.41 1016.49 1016.49 1016.61 1016.97 1017.17 1017.33 1017.49 1017.77 1018.01 1018.21 1018.41 1018.57 1018.85 1019.05 1019.21 1019.33 1019.45 1019.57 1019.65 1019.85 1020.01 1020.17 1020.25 1020.33 1020.41 1020.45 1020.53 1020.65 1020.69 1020.73 1020.77 1020.73 1020.73 1020.77
1015.53 1015.57 1015.49 1015.65 1015.77 1015.93 1016.25 1016.49 1016.57 1016.65 1016.65 1016.81 1017.05 1017.25 1017.45 1017.73 1017.97 1018.21 1018.41 1018.65 1018.85 1019.05 1019.21 1019.37 1019.49 1019.65 1019.69 1019.85 1019.97 1020.13 1020.25 1020.37 1020.41 1020.49 1020.61 1020.73 1020.77 1020.81 1020.89 1020.85 1020.93 1020.97
1015.69 1015.77 1015.69 1015.77 1015.93 1016.05 1016.33 1016.49 1016.53 1016.65 1016.77 1016.89 1016.97 1017.13 1017.33 1017.53 1017.81 1018.09 1018.33 1018.61 1018.85 1019.05 1019.29 1019.49 1019.61 1019.73 1019.81 1019.93 1020.09 1020.13 1020.29 1020.37 1020.45 1020.53 1020.69 1020.73 1020.77 1020.77 1020.85 1020.89 1020.93 1021.01
1017.17 1017.25 1017.05 1016.65 1016.29 1016.17 1016.29 1016.41 1016.41 1016.49 1016.61 1016.73 1016.89 1017.09 1017.17 1017.37 1017.57 1017.85 1018.09 1018.41 1018.73 1018.97 1019.21 1019.45 1019.65 1019.81 1019.89 1019.97 1020.17 1020.21 1020.33 1020.37 1020.41 1020.57 1020.69 1020.73 1020.73 1020.85 1020.89 1020.93 1021.05 1021.09
1016.61 1017.25 1017.25 1017.53 1017.45 1016.61 1016.37 1016.37 1016.37 1016.37 1016.45 1016.65 1016.77 1016.89 1016.93 1017.13 1017.37 1017.65 1017.93 1018.21 1018.53 1018.85 1019.09 1019.33 1019.57 1019.73 1019.89 1020.01 1020.25 1020.37 1020.41 1020.45 1020.41 1020.49 1020.65 1020.69 1020.73 1020.85 1020.85 1020.89 1021.01 1021.09
1015.69 1016.13 1016.53 1017.05 1017.25 1016.93 1016.61 1016.33 1016.25 1016.29 1016.33 1016.57 1016.77 1016.85 1016.85 1016.93 1017.17 1017.45 1017.77 1018.05 1018.41 1018.69 1018.97 1019.25 1019.45 1019.69 1019.89 1020.01 1020.21 1020.37 1020.41 1020.53 1020.53 1020.53 1020.61 1020.69 1020.73 1020.73 1020.77 1020.81 1020.89 1021.01
1016.25 1016.01 1016.33 1016.81 1017.13 1016.93 1016.33 1016.33 1016.13 1016.13 1016.25 1016.41 1016.61 1016.77 1016.93 1017.01 1017.09 1017.25 1017.41 1017.73 1018.13 1018.49 1018.77 1018.93 1019.17 1019.37 1019.57 1019.81 1020.05 1020.25 1020.37 1020.49 1020.57 1020.53 1020.57 1020.65 1020.65 1020.61 1020.69 1020.73 1020.77 1020.93
1015.85 1015.85 1015.81 1016.13 1016.57 1017.45 1017.09 1016.57 1016.17 1016.05 1016.05 1016.21 1016.41 1016.57 1016.65 1016.77 1016.89 1016.97 1017.29 1017.65 1017.93 1018.17 1018.33 1018.41 1018.57 1018.81 1019.13 1019.45 1019.73 1019.89 1020.09 1020.29 1020.41 1020.41 1020.41 1020.49 1020.49 1020.41 1020.49 1020.61 1020.69 1020.77
1016.13 1016.09 1015.65 1015.25 1015.45 1016.05 1016.45 1016.45 1016.09 1015.93 1015.93 1016.01 1016.13 1016.33 1016.61 1016.77 1017.01 1017.17 1017.21 1017.41 1017.61 1017.77 1017.85 1017.97 1018.17 1018.37 1018.73 1019.01 1019.21 1019.45 1019.69 1019.85 1020.01 1020.13 1020.21 1020.33 1020.37 1020.33 1020.41 1020.57 1020.69 1020.69
1016.01 1015.89 1015.97 1016.05 1016.09 1016.13 1016.49 1016.73 1016.41 1016.17 1016.09 1016.05 1016.17 1016.25 1016.41 1016.69 1016.97 1017.17 1017.33 1017.33 1017.41 1017.53 1017.77 1018.01 1018.21 1018.49 1018.69 1018.65 1018.61 1018.81 1019.09 1019.33 1019.53 1019.73 1019.93 1020.13 1020.17 1020.21 1020.41 1020.49 1020.57 1020.65
1015.69 1015.81 1015.89 1016.01 1016.17 1016.65 1016.69 1016.61 1016.45 1016.25 1016.09 1016.09 1016.21 1016.29 1016.29 1016.57 1016.89 1017.09 1017.21 1017.17 1017.13 1017.21 1017.49 1018.05 1018.09 1017.93 1017.93 1018.13 1018.33 1018.33 1018.61 1018.89 1019.13 1019.41 1019.65 1019.85 1019.97 1020.09 1020.25 1020.37 1020.45 1020.57
1015.57 1015.65 1015.73 1015.85 1016.01 1016.29 1016.37 1016.49 1016.41 1016.41 1016.33 1016.29 1016.29 1016.29 1016.41 1016.61 1016.73 1016.89 1017.09 1017.21 1017.33 1017.45 1017.57 1017.77 1017.85 1017.81 1017.89 1017.97 1018.17 1018.41 1018.57 1018.77 1018.97 1019.13 1019.33 1019.65 1019.85 1020.01 1020.13 1020.29 1020.41 1020.53
1015.45 1015.57 1015.69 1015.73 1015.93 1016.01 1016.09 1016.13 1016.13 1016.17 1016.25 1016.29 1016.33 1016.37 1016.45 1016.57 1016.65 1016.73 1016.77 1016.89 1017.09 1017.29 1017.49 1017.69 1017.81 1017.73 1017.69 1017.69 1017.81 1018.05 1018.41 1018.57 1018.77 1018.93 1019.17 1019.45 1019.69 1019.97 1020.13 1020.21 1020.33 1020.49
1015.53 1015.57 1015.57 1015.69 1015.69 1015.77 1015.77 1015.81 1015.85 1015.97 1016.17 1016.29 1016.37 1016.45 1016.49 1016.53 1016.57 1016.61 1016.65 1016.73 1016.85 1017.05 1017.21 1017.29 1017.37 1017.45 1017.45 1017.53 1017.61 1017.81 1018.01 1018.25 1018.45 1018.73 1018.93 1019.17 1019.37 1019.61 1019.85 1020.05 1020.21 1020.45
1015.41 1015.49 1015.57 1015.61 1015.69 1015.73 1015.77 1015.81 1015.89 1016.01 1016.13 1016.17 1016.29 1016.37 1016.33 1016.41 1016.41 1016.33 1016.33 1016.53 1016.73 1016.89 1016.93 1017.01 1017.09 1017.09 1017.21 1017.29 1017.41 1017.57 1017.81 1017.93 1018.17 1018.41 1018.69 1018.89 1019.13 1019.33 1019.69 1019.97 1020.13 1020.33
1014.89 1014.97 1015.13 1015.21 1015.29 1015.37 1015.41 1015.53 1015.61 1015.65 1015.69 1015.81 1015.93 1015.89 1016.09 1016.29 1016.25 1016.29 1016.29 1016.25 1016.45 1016.57 1016.61 1016.61 1016.77 1016.81 1016.93 1017.17 1017.37 1017.53 1017.77 1017.77 1017.93 1018.05 1018.37 1018.69 1018.93 1019.25 1019.61 1019.85 1020.05 1020.25
1014.85 1015.05 1015.17 1015.25 1015.25 1015.29 1015.33 1015.37 1015.45 1015.57 1015.61 1015.57 1015.49 1015.53 1015.61 1015.81 1015.97 1016.01 1016.05 1016.09 1016.17 1016.29 1016.41 1016.57 1016.73 1016.81 1016.93 1017.13 1017.33 1017.53 1017.69 1017.65 1017.81 1017.97 1018.25 1018.53 1018.81 1019.05 1019.37 1019.57 1019.77 1020.05
1015.01 1015.09 1015.13 1015.17 1015.21 1015.33 1015.41 1015.49 1015.53 1015.57 1015.53 1015.45 1015.45 1015.49 1015.57 1015.61 1015.69 1015.81 1015.89 1015.93 1016.05 1016.17 1016.33 1016.61 1016.77 1016.85 1017.05 1017.25 1017.37 1017.49 1017.57 1017.53 1017.85 1018.09 1018.41 1018.81 1019.17 1019.33 1019.33 1019.45 1019.69 1019.93
1014.97 1015.01 1015.09 1015.17 1015.25 1015.33 1015.45 1015.53 1015.57 1015.57 1015.57 1015.53 1015.53 1015.53 1015.53 1015.53 1015.69 1015.85 1015.89 1015.93 1015.93 1016.01 1016.37 1016.57 1016.81 1017.17 1017.37 1017.53 1017.57 1017.57 1017.53 1017.61 1017.69 1018.01 1018.41 1018.89 1019.21 1019.29 1019.41 1019.49 1019.65 1019.81
1014.93 1014.97 1015.09 1015.17 1015.33 1015.45 1015.49 1015.53 1015.57 1015.57 1015.53 1015.53 1015.61 1015.69 1015.73 1015.73 1015.65 1015.57 1015.73 1015.77 1015.93 1016.17 1016.37 1016.49 1016.73 1017.41 1017.53 1017.61 1017.61 1017.53 1017.61 1017.89 1018.09 1018.53 1018.81 1019.09 1019.13 1019.33 1019.37 1019.49 1019.57 1019.69
1014.73 1014.81 1015.01 1015.13 1015.29 1015.45 1015.49 1015.57 1015.53 1015.53 1015.53 1015.53 1015.61 1015.69 1015.69 1015.65 1015.61 1015.61 1015.53 1015.61 1015.73 1016.13 1016.25 1016.33 1017.05 1017.81 1017.73 1017.77 1017.73 1017.73 1017.81 1018.13 1018.33 1018.65 1018.97 1019.05 1019.21 1019.33 1019.41 1019.41 1019.81 1019.85
1014.93 1014.97 1015.05 1015.17 1015.29 1015.41 1015.45 1015.53 1015.57 1015.57 1015.53 1015.61 1015.65 1015.73 1015.69 1015.65 1015.61 1015.49 1015.57 1015.81 1015.77 1015.85 1016.33 1016.73 1017.57 1018.05 1018.09 1017.89 1017.97 1018.05 1018.21 1018.49 1018.53 1018.85 1019.17 1019.29 1019.37 1019.41 1019.65 1020.17 1020.61 1020.57
1014.81 1014.89 1014.93 1015.05 1015.17 1015.25 1015.33 1015.45 1015.49 1015.53 1015.57 1015.57 1015.57 1015.69 1015.69 1015.69 1015.73 1015.73 1015.81 1016.09 1016.37 1016.41 1016.77 1017.13 1017.69 1018.21 1018.25 1018.05 1018.13 1018.29 1018.41 1018.69 1018.93 1019.05 1019.41 1019.69 1019.93 1020.05 1020.21 1020.77 1021.13 1021.25
Wind_Speed
5 6 7 7 7 7 7 7 8 9 8 7 7 6 7 5 4 5 6 6 5 4 4 4 4 4 5 4 4 5 4 4 4 4 4 4 4 4 4 4 4 3
5 6 6 6 6 5 5 6 8 9 9 8 7 7 6 6 4 5 5 5 5 5 4 3 2 4 5 5 5 5 4 4 4 2 4 4 3 4 3 3 4 4
4 6 8 7 7 5 6 5 6 8 9 8 8 8 7 6 6 5 6 5 4 4 4 3 3 2 4 5 4 4 4 3 3 3 3 3 2 3 1 2 4 4
4 5 7 7 6 6 5 5 5 6 7 8 8 8 8 6 6 6 6 6 5 4 4 2 2 3 4 4 4 4 3 3 4 4 4 2 2 3 2 3 3 4
4 4 4 5 6 7 5 6 5 5 8 8 8 8 8 7 6 6 6 5 5 4 4 4 2 3 3 3 4 5 3 5 4 4 3 3 3 3 2 2 2 3
3 3 3 4 5 6 5 6 6 5 7 8 9 8 8 8 7 7 6 5 5 6 4 3 2 1 3 3 3 4 3 4 4 4 3 4 3 2 3 3 3 2
14 13 10 5 2 5 5 5 6 5 7 8 7 8 9 9 8 9 8 7 6 6 6 4 4 3 2 3 3 4 3 4 4 3 4 3 4 2 1 3 2 2
7 2 7 8 13 1 4 4 4 4 5 7 9 8 9 9 9 8 7 7 7 6 6 5 4 4 3 3 3 4 3 3 4 4 4 4 4 3 2 1 2 2
9 6 4 4 2 5 3 3 4 5 4 5 4 5 6 8 9 8 8 8 6 6 6 6 6 5 4 4 4 4 5 4 4 4 4 4 5 5 4 3 2 1
4 5 6 4 2 2 1 1 4 4 5 5 5 5 6 4 5 6 8 8 7 6 6 6 7 7 6 6 5 4 5 4 4 5 4 4 5 5 5 4 4 3
11 10 9 6 5 4 5 3 3 5 5 6 5 5 5 5 4 5 5 5 5 5 5 8 9 9 9 7 6 6 6 5 5 5 4 4 6 5 5 6 5 5
1 1 2 9 12 11 11 9 7 5 4 4 5 5 4 3 4 4 6 8 7 5 4 4 6 8 9 9 9 8 7 7 7 6 5 5 5 5 4 6 5 5
2 3 2 2 3 6 2 2 1 2 3 3 1 2 3 4 4 5 4 6 5 5 3 4 2 2 2 7 10 10 9 9 8 8 6 6 5 5 4 5 4 4
4 4 3 3 3 1 3 5 4 3 3 3 3 3 4 1 1 3 3 3 6 8 8 5 4 7 7 5 7 10 9 9 9 8 7 6 5 4 5 4 4 4
4 4 4 4 4 6 5 5 5 3 2 2 3 3 2 1 1 2 3 2 2 2 3 4 5 6 7 7 5 6 6 7 8 8 8 6 5 5 4 5 4 4
5 4 5 4 5 5 6 5 5 4 4 2 3 3 3 2 3 2 3 3 3 4 5 5 5 4 8 13 10 6 6 7 7 7 7 7 6 5 4 4 5 4
4 5 5 5 5 5 5 5 5 4 4 5 6 6 5 5 4 5 4 4 5 5 5 6 6 6 12 14 14 13 7 7 8 7 7 7 7 8 7 6 4 4
6 6 5 5 4 5 4 4 4 4 4 5 6 7 7 5 6 6 5 4 4 4 6 6 6 9 15 15 15 15 11 8 7 8 7 8 7 7 6 5 5 4
3 3 4 5 4 4 3 3 3 2 2 3 6 8 6 6 7 5 5 5 4 4 6 5 4 8 12 14 14 12 12 10 7 8 8 8 7 7 7 6 5 5
1 3 5 4 4 4 4 3 3 2 0 0 0 1 4 6 6 7 6 6 6 7 6 4 4 6 8 10 11 11 11 10 7 7 7 7 7 8 7 7 7 6
3 4 5 4 4 4 4 3 3 3 4 4 2 1 1 1 2 4 5 6 6 6 5 4 5 7 7 6 8 11 13 10 6 6 6 6 4 4 5 5 6 5
4 4 4 4 3 3 2 1 1 1 2 2 3 4 2 1 1 2 4 4 4 5 4 4 2 7 7 8 10 12 11 6 7 7 7 7 4 4 3 3 4 4
4 5 4 3 3 2 0 0 0 1 2 1 3 3 2 3 5 4 4 5 4 4 6 5 4 6 10 11 11 12 9 6 5 6 6 7 3 4 4 3 3 2
4 4 3 3 2 1 1 1 0 0 1 1 1 3 4 4 4 4 4 3 4 6 8 8 4 5 9 9 10 10 9 6 6 7 5 3 3 3 3 3 2 8
1 2 3 3 2 1 1 1 2 2 2 0 1 2 3 4 4 5 1 3 1 6 8 7 6 6 9 11 12 11 9 6 6 7 6 3 1 0 1 6 8 9
1 0 2 2 2 3 3 4 4 1 1 2 3 3 4 4 3 1 3 3 3 5 6 7 9 6 7 13 14 14 12 7 6 7 6 6 5 6 6 5 6 6
Wind_Direction
162 144 147 148 152 154 153 148 143 137 140 138 135 141 138 151 136 117 119 114 118 108 93 85 72 81 99 99 98 89 90 95 88 90 82 79 78 79 69 57 43 82
168 142 141 139 143 147 160 152 148 143 145 145 143 138 140 136 126 123 116 115 114 123 122 109 95 94 101 105 105 105 96 103 117 102 95 89 90 79 74 69 58 68
169 147 149 150 153 159 163 159 152 143 145 148 140 138 144 140 131 131 125 125 117 119 124 137 125 99 109 115 114 115 127 122 113 102 109 130 104 95 98 49 51 74
180 159 149 149 151 158 160 152 157 138 139 136 144 149 147 145 135 137 137 136 134 137 144 142 147 139 135 123 122 132 136 129 130 116 107 73 87 97 82 64 53 49
177 166 148 143 155 159 146 151 157 146 145 147 140 143 142 141 137 142 143 145 142 148 144 162 147 142 151 130 138 143 139 138 138 124 126 124 135 119 129 97 64 61
149 179 162 162 158 160 153 152 162 146 140 140 148 147 149 150 147 151 154 153 154 153 155 148 159 156 163 151 136 156 142 148 168 139 139 140 142 146 139 131 129 124
15 360 358 1 128 165 152 152 160 154 149 153 144 152 155 159 159 161 160 162 154 160 161 163 169 185 179 167 142 176 151 168 183 155 160 167 161 200 181 149 152 178
112 101 57 20 342 26 123 123 138 153 155 145 156 166 162 167 164 163 162 163 161 163 163 166 169 178 188 172 159 192 191 195 196 183 178 174 171 172 173 122 131 72
130 139 133 123 97 355 3 99 114 96 94 116 139 164 169 166 168 162 164 166 165 166 162 164 173 175 188 178 185 187 204 209 204 201 187 181 175 184 179 156 133 154
76 110 121 123 41 317 181 241 129 120 122 117 127 131 133 146 157 166 166 168 166 163 167 172 173 179 184 184 193 192 204 204 204 206 201 184 187 182 180 172 177 186
155 161 146 130 128 247 279 236 175 150 156 153 150 153 162 147 153 149 152 151 148 155 174 180 182 180 181 185 194 192 195 194 198 202 204 189 196 194 175 180 179 186
37 327 192 166 171 187 205 208 190 180 168 162 169 176 164 155 126 111 111 115 122 144 181 194 192 181 177 186 192 192 191 192 193 194 203 195 197 199 179 173 174 177
173 194 248 200 191 187 187 296 129 121 146 186 206 186 195 185 148 124 131 134 148 162 214 230 155 127 193 200 194 193 190 190 189 191 197 199 196 186 171 156 148 145
168 172 169 172 133 127 195 216 227 217 200 181 190 228 228 205 116 141 169 166 171 173 192 197 145 162 183 203 213 200 190 189 184 185 191 194 186 170 157 158 158 153
163 168 171 170 173 168 176 190 204 205 187 183 202 238 249 184 143 164 183 206 222 232 198 169 163 172 189 200 208 219 202 186 183 184 181 176 165 165 149 147 150 142
176 168 173 175 170 176 187 195 199 192 174 192 233 241 235 196 200 210 209 208 201 205 205 191 186 181 191 200 205 184 188 193 185 182 172 161 153 148 146 149 153 146
176 188 188 182 195 188 196 194 203 198 194 206 214 219 216 209 202 214 219 221 217 216 216 207 194 191 198 201 208 204 189 190 181 177 166 162 158 156 165 168 158 144
174 184 176 198 190 200 208 215 212 205 207 210 210 213 215 193 200 211 218 222 218 221 223 213 209 202 192 202 209 215 208 185 174 165 165 164 164 163 155 161 173 153
129 148 162 149 139 131 126 110 121 137 173 183 196 205 193 186 203 210 238 242 233 235 239 230 216 220 210 209 213 211 200 176 171 164 157 161 162 154 163 170 174 173
119 104 99 101 84 65 58 54 47 43 324 287 258 100 136 164 183 204 221 236 236 234 230 228 219 237 228 220 218 211 189 166 160 156 143 144 160 159 162 171 174 186
88 108 103 89 77 69 52 42 29 6 7 350 20 120 109 203 208 200 199 182 188 200 205 195 218 222 229 219 198 181 168 145 130 120 132 113 112 158 164 148 150 152
128 110 101 91 82 72 65 17 5 18 1 344 9 341 315 175 173 182 224 224 200 182 160 190 166 141 146 143 146 143 128 128 138 135 128 132 165 143 129 123 126 135
130 118 112 103 101 94 99 45 97 357 338 1 8 330 310 279 253 233 209 210 203 164 155 179 169 140 137 142 136 116 101 89 103 94 93 109 121 127 136 119 121 137
158 140 146 158 139 172 208 247 279 24 299 278 300 292 302 273 250 260 257 223 192 164 169 175 144 137 139 132 125 112 97 98 101 102 104 102 71 70 109 131 43 42
92 110 127 133 132 178 186 233 240 233 250 340 290 289 278 282 275 255 327 25 147 164 164 131 122 122 126 120 104 93 86 85 90 90 77 55 94 343 1 68 50 52
7 148 156 155 183 214 225 214 212 196 255 275 295 289 289 303 348 42 81 58 64 105 115 130 125 120 125 109 104 98 96 92 88 89 83 82 77 82 80 77 74 78